EW7350 Weather Reports


time (UTC)temp
F
wind
direction
speed
knots
gust
knots
rain 1hr
in
rain 24hr
in
rain mn
in
humidity
%
barometer
mb
20260903010032 82 309 0.0 0.0 0.00 0.00 0.00 86 1011.9
20260903004542 82 309 0.0 0.0 0.00 0.00 0.00 85 1011.9
20260903003038 83 309 0.0 0.0 0.00 0.00 0.00 84 1011.7
20260903001530 84 309 0.0 0.0 0.00 0.00 0.00 83 1011.8
20260903000030 85 309 0.0 0.0 0.00 0.00 0.00 82 1011.9
20260902234530 85 309 0.0 0.0 0.00 0.00 0.00 80 1011.8
20260902233029 86 309 0.0 0.0 0.00 0.00 0.00 79 1011.9
20260902231527 87 309 0.0 0.0 0.00 0.00 0.00 78 1011.9
20260902230026 88 309 0.0 1.7 0.00 0.00 0.00 76 1012.0
20260902224526 88 310 0.0 0.9 0.00 0.00 0.00 75 1012.0
20260902223029 89 311 0.0 0.9 0.00 0.00 0.00 73 1012.0
20260902221525 90 311 0.0 0.9 0.00 0.00 0.00 70 1012.0
20260902220022 92 318 0.0 1.7 0.00 0.00 0.00 67 1012.0
20260902214527 93 286 0.0 2.6 0.00 0.00 0.00 65 1012.1
20260902213026 94 289 0.0 3.5 0.00 0.00 0.00 64 1012.1
20260902211518 94 293 0.9 3.5 0.00 0.00 0.00 63 1012.1
20260902210025 94 286 1.7 3.5 0.00 0.00 0.00 64 1012.2
20260902204518 94 292 0.0 2.6 0.00 0.00 0.00 65 1012.2
20260902203020 94 292 0.0 4.3 0.00 0.00 0.00 66 1012.3
20260902201516 94 9 0.0 2.6 0.00 0.00 0.00 65 1012.5
20260902200013 94 279 0.9 6.1 0.00 0.00 0.00 64 1012.7
20260902194507 94 283 0.0 5.2 0.00 0.00 0.00 63 1012.6
20260902193003 94 302 0.0 1.7 0.00 0.00 0.00 64 1012.8
20260902191601 93 257 0.0 3.5 0.00 0.00 0.00 64 1012.9
20260902190059 93 74 0.0 1.7 0.00 0.00 0.00 65 1013.0
20260902184601 93 271 0.0 1.7 0.00 0.00 0.00 66 1013.0
20260902183107 93 265 0.0 2.6 0.00 0.00 0.00 67 1013.0
20260902181550 92 210 0.0 2.6 0.00 0.00 0.00 69 1013.2
20260902180047 93 286 0.0 1.7 0.00 0.00 0.00 67 1013.4
20260902174544 92 282 0.0 0.9 0.00 0.00 0.00 67 1013.5
20260902173040 91 309 0.0 0.9 0.00 0.00 0.00 69 1013.7
20260902171540 91 325 0.0 1.7 0.00 0.00 0.00 70 1013.9
20260902170044 90 172 0.0 2.6 0.00 0.00 0.00 71 1014.0
20260902164532 89 289 0.0 0.0 0.00 0.00 0.00 71 1014.1
20260902163029 88 279 0.0 0.9 0.00 0.00 0.00 73 1014.1
20260902161525 87 279 0.0 3.5 0.00 0.00 0.00 73 1014.3
20260902160022 86 288 0.9 4.3 0.00 0.00 0.00 77 1014.4
20260902154526 85 297 0.0 1.7 0.00 0.00 0.00 78 1014.4
20260902153022 84 288 0.0 3.5 0.00 0.00 0.00 79 1014.4
20260902151513 83 281 0.0 1.7 0.00 0.00 0.00 80 1014.5
20260902150010 82 286 0.0 4.3 0.00 0.00 0.00 82 1014.5
20260902144513 81 286 0.0 7.8 0.00 0.01 0.00 84 1014.4
20260902143005 80 284 0.0 0.0 0.00 0.01 0.00 85 1014.4
20260902141600 79 275 0.0 0.9 0.00 0.01 0.00 86 1014.4
20260902140056 78 271 0.0 1.7 0.00 0.01 0.00 87 1014.3
20260902134558 77 298 0.0 0.0 0.00 0.02 0.00 86 1014.4
20260902133102 76 298 0.0 0.9 0.00 0.02 0.00 84 1014.5
20260902131559 75 299 0.0 0.0 0.00 0.02 0.00 82 1014.6
20260902130051 74 300 0.0 0.0 0.00 0.02 0.00 81 1014.6
20260902124550 74 300 0.0 0.0 0.00 0.03 0.00 81 1014.7
20260902123106 73 300 0.0 0.9 0.00 0.03 0.00 81 1014.7
20260902121557 73 300 0.0 0.0 0.00 0.03 0.00 81 1014.8
20260902120104 73 300 0.0 0.0 0.00 0.03 0.00 81 1014.7
20260902114548 72 300 0.0 0.0 0.00 0.04 0.00 81 1014.7
20260902113047 72 300 0.0 0.0 0.00 0.04 0.00 81 1014.6
20260902111554 72 300 0.0 0.0 0.00 0.04 0.00 82 1014.4
20260902110046 72 300 0.0 0.0 0.00 0.04 0.00 82 1014.4
20260902104545 72 300 0.0 0.0 0.00 0.04 0.00 82 1014.3
20260902103044 72 300 0.0 0.0 0.00 0.04 0.00 82 1014.2
20260902101539 73 300 0.0 0.0 0.00 0.04 0.00 82 1014.0
20260902100039 73 300 0.0 0.0 0.00 0.04 0.00 82 1014.0
20260902094537 73 300 0.0 0.0 0.00 0.04 0.00 82 1013.9
20260902093035 73 300 0.0 0.0 0.00 0.04 0.00 82 1013.9
20260902091534 73 300 0.0 0.0 0.00 0.04 0.00 82 1013.8
20260902090034 73 300 0.0 4.3 0.00 0.04 0.00 82 1013.7
20260902084533 74 300 0.0 0.0 0.00 0.04 0.00 82 1013.7
20260902083031 74 300 0.0 0.0 0.00 0.04 0.00 83 1013.8
20260902081535 74 300 0.0 0.0 0.00 0.04 0.00 82 1013.9
20260902080030 74 300 0.0 0.9 0.00 0.04 0.00 83 1013.9
20260902074528 74 300 0.0 0.0 0.00 0.04 0.00 83 1013.9
20260902073027 74 300 0.0 0.0 0.00 0.04 0.00 83 1013.7
20260902071525 74 300 0.0 0.0 0.00 0.04 0.00 83 1013.7
20260902070023 75 300 0.0 0.0 0.00 0.04 0.00 83 1013.6
20260902064523 75 300 0.0 0.0 0.00 0.04 0.00 84 1013.6
20260902063033 75 300 0.0 0.0 0.00 0.04 0.00 84 1013.5
20260902061522 75 300 0.0 0.0 0.00 0.04 0.00 84 1013.7
20260902060017 76 300 0.0 0.0 0.00 0.04 0.00 84 1013.7
20260902054522 76 300 0.0 0.0 0.00 0.04 0.00 84 1013.8
20260902053014 76 300 0.0 0.0 0.00 0.04 0.00 84 1013.8
20260902051511 77 300 0.0 0.0 0.00 0.04 0.00 85 1013.8
20260902050031 77 300 0.0 0.0 0.00 0.04 0.00 84 1013.7
20260902044509 77 300 0.0 0.0 0.00 0.04 0.00 84 1013.7
20260902043022 77 300 0.0 0.0 0.00 0.04 0.00 84 1013.7
20260902041508 77 300 0.0 0.0 0.00 0.04 0.00 84 1013.6
20260902040006 78 300 0.0 0.0 0.00 0.04 0.00 84 1013.6
20260902034505 78 300 0.0 0.0 0.00 0.04 0.04 84 1013.6
20260902033003 78 300 0.0 0.0 0.00 0.04 0.04 84 1013.6
20260902031501 78 300 0.0 0.0 0.00 0.04 0.04 84 1013.6
20260902030100 78 300 0.0 0.0 0.00 0.04 0.04 84 1013.5
20260902024606 78 300 0.0 0.0 0.00 0.04 0.04 84 1013.5
20260902023104 78 300 0.0 0.0 0.00 0.04 0.04 84 1013.5
20260902021611 78 300 0.0 0.0 0.00 0.04 0.04 85 1013.5
20260902020112 79 300 0.0 0.0 0.00 0.04 0.04 86 1013.5
20260902014558 79 300 0.0 0.0 0.00 0.04 0.04 87 1013.4
20260902013057 80 300 0.0 0.0 0.00 0.04 0.04 87 1013.6
20260902011557 80 300 0.0 0.0 0.00 0.04 0.04 87 1013.4